User: anonymous   Login
Location: Barcelona
(41.3830°N, 2.1830°E)
Time: 08:45:18
(UTC+02:00)
Language:

PicSat - Orbit

View from above orbital plane
View from above orbital plane
View from above satellite
View from above satellite

Ground track
Ground track

The orbit data is extracted from the following two-line orbital elements,

1 43131U 18004W   19290.46977616  .00001534  00000-0  65440-4 0  9998
2 43131  97.4780 358.3383 0009374 179.6141 180.5105 15.24431648 97918
Epoch (UTC): 17 October 2019 11:16:28
Eccentricity: 0.0009374
inclination: 97.4780°
perigee height: 486 km
apogee height: 499 km
right ascension of ascending node: 358.3383°
argument of perigee: 179.6141°
revolutions per day: 15.24431648
mean anomaly at epoch: 180.5105°
orbit number at epoch: 9791

The dashed part of the orbit path shows where the satellite is in the earth's shadow,  

DLR